Clarksburg, WV

5:35 PM EST on December 06, 2019 (GMT -0500)
Benedum

Weather History for KCKB - October, 2019

Change the Weather History Date:

Monday, October 28, 2019

  Actual Average Record
Temperature  
Mean Temperature 58 °F -  
Max Temperature 76 °F 62 °F 79 °F (1939)
Min Temperature 39 °F 36 °F 20 °F (1942)
Degree Days  
Heating Degree Days 7    
Month to date heating degree days 167  
Growing Degree Days 7 (Base 50)    
Moisture  
Dew Point 43 °F    
Average Humidity 62    
Maximum Humidity 93    
Minimum Humidity 31    
Precipitation  
Precipitation 0.00 in - - ()
Month to date precipitation 2.47  
Year to date precipitation 34.54  
Sea Level Pressure  
Sea Level Pressure 30.11 in    
Wind  
Wind Speed 1 mph (South)    
Max Wind Speed 6 mph    
Max Gust Speed 10 mph    
Visibility 4 miles    
Events Fog    
Averages and records for this station are not official NWS values.
T = Trace of Precipitation, MM = Missing Value Source: NWS Daily Summary

Daily Weather History Graph

Daily Weather History Graph

Search for Another Location

Airport or City:

Astronomy

Oct. 28, 2019 Rise Set
Actual Time 7:44 AM EDT 6:24 PM EDT
Civil Twilight 7:16 AM EDT 6:52 PM EDT
Nautical Twilight 6:45 AM EDT 7:23 PM EDT
Astronomical Twilight 6:13 AM EDT 7:54 PM EDT
Moon 8:03 AM EDT (10/28) 7:09 PM EDT (10/28)
Length of Visible Light 11h 35m
Length of Day
10h 40m
New Moon, 0% of the Moon is Illuminated
Oct 28
New Moon
Nov 4
First Quarter
Nov 12
Full
Nov 19
Last Quarter
Nov 26
New

Hourly Weather History & Observations

Time (EDT) Temp. Dew Point Humidity Pressure Visibility Wind Dir Wind Speed Gust Speed Precip Events Conditions
12:35 AM 48.0 °F 45.0 °F 89% 30.10 in 2.0 mi Calm Calm - N/A   Clear
12:53 AM 46.9 °F 44.1 °F 90% 30.09 in 5.0 mi Calm Calm - N/A   Clear
1:08 AM 46.0 °F 42.1 °F 86% 30.11 in 1.5 mi Calm Calm - N/A   Clear
1:26 AM 46.9 °F 44.1 °F 90% 30.11 in 3.0 mi Calm Calm - N/A   Clear
1:38 AM 46.0 °F 42.1 °F 86% 30.11 in 1.5 mi Calm Calm - N/A   Clear
1:40 AM 46.0 °F 42.1 °F 86% 30.11 in 0.8 mi Calm Calm - N/A   Mist
1:53 AM 45.0 °F 42.1 °F 90% 30.09 in 0.2 mi Calm Calm - N/A Fog Fog
2:53 AM 44.1 °F 41.0 °F 89% 30.09 in 0.2 mi Calm Calm - N/A Fog Fog
3:53 AM 42.1 °F 39.0 °F 89% 30.11 in 0.2 mi Calm Calm - N/A Fog Fog
4:53 AM 43.0 °F 39.9 °F 89% 30.12 in 0.2 mi Calm Calm - N/A Fog Fog
5:53 AM 41.0 °F 37.9 °F 89% 30.13 in 0.2 mi Calm Calm - N/A Fog Fog
6:14 AM 41.0 °F 37.9 °F 89% 30.14 in 0.5 mi Calm Calm - N/A Fog Fog
6:53 AM 39.9 °F 37.9 °F 93% 30.13 in 0.5 mi Calm Calm - N/A Fog Fog
7:53 AM 41.0 °F 37.0 °F 86% 30.14 in 0.2 mi Calm Calm - N/A Fog Fog
8:07 AM 41.0 °F 37.9 °F 89% 30.15 in 0.2 mi Calm Calm - N/A Fog Fog
8:14 AM 41.0 °F 37.9 °F 89% 30.15 in 0.2 mi Calm Calm - N/A Fog Fog
8:29 AM 42.1 °F 39.0 °F 89% 30.15 in 0.2 mi Calm Calm - N/A Fog Fog
8:51 AM 42.8 °F 39.2 °F 87% 30.16 in 0.2 mi Calm Calm - N/A Fog Fog
8:53 AM 43.0 °F 39.9 °F 89% 30.15 in 0.2 mi Calm Calm - N/A Fog Fog
9:25 AM 43.0 °F 39.9 °F 89% 30.17 in 0.2 mi Calm Calm - N/A Fog Fog
9:41 AM 45.0 °F 42.1 °F 90% 30.17 in 0.2 mi Calm Calm - N/A Fog Fog
9:53 AM 46.0 °F 43.0 °F 89% 30.17 in 0.2 mi Calm Calm - N/A Fog Fog
10:32 AM 50.0 °F 46.0 °F 86% 30.17 in 5.0 mi Variable 3.5 mph - N/A   Scattered Clouds
10:53 AM 51.1 °F 46.9 °F 86% 30.16 in 10.0 mi Calm Calm - N/A   Clear
11:53 AM 62.1 °F 51.1 °F 67% 30.13 in 10.0 mi Variable 3.5 mph - N/A   Clear
12:53 PM 66.9 °F 48.9 °F 52% 30.11 in 10.0 mi Calm Calm - N/A   Clear
1:53 PM 71.1 °F 46.0 °F 41% 30.08 in 10.0 mi Calm Calm - N/A   Clear
2:53 PM 72.0 °F 45.0 °F 38% 30.05 in 10.0 mi Calm Calm - N/A   Clear
3:53 PM 75.0 °F 42.1 °F 31% 30.04 in 10.0 mi Calm Calm - N/A   Clear
4:53 PM 75.9 °F 45.0 °F 33% 30.04 in 10.0 mi West 3.5 mph - N/A   Clear
5:53 PM 72.0 °F 45.0 °F 38% 30.04 in 10.0 mi NNE 3.5 mph - N/A   Clear
6:53 PM 64.9 °F 46.0 °F 50% 30.05 in 10.0 mi NE 3.5 mph - N/A   Clear
7:53 PM 61.0 °F 46.0 °F 58% 30.07 in 10.0 mi Calm Calm - N/A   Clear
8:53 PM 57.0 °F 46.0 °F 67% 30.07 in 10.0 mi Calm Calm - N/A   Clear
9:53 PM 55.0 °F 46.0 °F 72% 30.09 in 10.0 mi Calm Calm - N/A   Clear
10:53 PM 53.1 °F 46.0 °F 77% 30.10 in 10.0 mi Calm Calm - N/A   Clear
11:53 PM 51.1 °F 45.0 °F 80% 30.09 in 10.0 mi Calm Calm - N/A   Clear